Time,TemperatureF,DewpointF,PressureIn,WindDirection,WindDirectionDegrees,WindSpeedMPH,WindSpeedGustMPH,Humidity,HourlyPrecipIn,Conditions,Clouds,dailyrainin,SolarRadiationWatts/m^2,SoftwareType,DateUTC
2013-04-16 00:00:00,69.0,61.1,29.88,SSE,152,5.0,7.0,76,0.00,CLR,,0.00,0.0,WeatherDisplay:10.37,2013-04-16 05:00:00,
2013-04-16 00:10:00,69.2,61.3,29.88,SSE,152,5.0,7.0,76,0.00,CLR,,0.00,0.0,WeatherDisplay:10.37,2013-04-16 05:10:00,
2013-04-16 00:20:00,69.2,61.3,29.87,SE,143,7.0,10.0,76,0.00,CLR,,0.00,0.0,WeatherDisplay:10.37,2013-04-16 05:20:00,
2013-04-16 00:30:00,69.1,61.2,29.87,SSE,155,5.0,9.0,76,0.00,CLR,,0.00,0.0,WeatherDisplay:10.37,2013-04-16 05:30:00,
2013-04-16 00:40:00,68.9,61.4,29.87,SSE,156,3.0,9.0,77,0.00,CLR,,0.00,0.0,WeatherDisplay:10.37,2013-04-16 05:40:00,
2013-04-16 00:50:00,68.8,61.3,29.87,SSE,163,6.0,9.0,77,0.00,CLR,,0.00,0.0,WeatherDisplay:10.37,2013-04-16 05:50:00,
2013-04-16 01:00:00,68.7,61.6,29.87,SSE,148,5.0,8.0,78,0.00,CLR,,0.00,0.0,WeatherDisplay:10.37,2013-04-16 06:00:00,
2013-04-16 01:10:00,68.5,61.7,29.87,SSE,149,5.0,8.0,79,0.00,CLR,,0.00,0.0,WeatherDisplay:10.37,2013-04-16 06:10:00,
2013-04-16 01:20:00,68.4,61.6,29.87,SE,144,3.0,7.0,79,0.00,CLR,,0.00,0.0,WeatherDisplay:10.37,2013-04-16 06:20:00,
2013-04-16 01:30:00,68.2,61.5,29.87,SSE,147,5.0,8.0,79,0.00,CLR,,0.00,0.0,WeatherDisplay:10.37,2013-04-16 06:30:00,
2013-04-16 01:40:00,68.1,61.7,29.87,SSE,148,5.0,9.0,80,0.00,CLR,,0.00,0.0,WeatherDisplay:10.37,2013-04-16 06:40:00,
2013-04-16 01:50:00,67.8,61.4,29.88,SSE,153,5.0,8.0,80,0.00,CLR,,0.00,0.0,WeatherDisplay:10.37,2013-04-16 06:50:00,
2013-04-16 02:00:00,67.7,61.7,29.88,SSE,150,3.0,9.0,81,0.00,CLR,,0.00,0.0,WeatherDisplay:10.37,2013-04-16 07:00:00,
2013-04-16 02:10:00,67.4,61.4,29.88,SSE,152,3.0,7.0,81,0.00,CLR,,0.00,0.0,WeatherDisplay:10.37,2013-04-16 07:10:00,
2013-04-16 02:20:00,67.3,61.3,29.88,SE,144,5.0,7.0,81,0.00,CLR,,0.00,0.0,WeatherDisplay:10.37,2013-04-16 07:20:00,
2013-04-16 02:40:00,67.0,61.3,29.88,SSE,154,3.0,9.0,82,0.00,CLR,,0.00,0.0,WeatherDisplay:10.37,2013-04-16 07:40:00,
2013-04-16 02:50:00,67.0,61.7,29.88,SSE,149,3.0,8.0,83,0.00,CLR,,0.00,0.0,WeatherDisplay:10.37,2013-04-16 07:50:00,
2013-04-16 03:00:00,66.9,61.6,29.88,SSE,149,3.0,7.0,83,0.00,CLR,,0.00,0.0,WeatherDisplay:10.37,2013-04-16 08:00:00,
2013-04-16 03:10:00,66.8,61.5,29.89,SSE,148,3.0,6.0,83,0.00,CLR,,0.00,0.0,WeatherDisplay:10.37,2013-04-16 08:10:00,
2013-04-16 03:20:00,66.9,61.5,29.89,SSE,150,3.0,8.0,83,0.00,CLR,,0.00,0.0,WeatherDisplay:10.37,2013-04-16 08:20:00,
2013-04-16 03:30:00,66.7,61.7,29.89,SSE,147,3.0,7.0,84,0.00,CLR,,0.00,0.0,WeatherDisplay:10.37,2013-04-16 08:30:00,
2013-04-16 03:40:00,66.6,61.6,29.89,SE,143,3.0,7.0,84,0.00,CLR,,0.00,0.0,WeatherDisplay:10.37,2013-04-16 08:40:00,
2013-04-16 03:50:00,66.6,61.6,29.90,SE,143,3.0,7.0,84,0.00,CLR,,0.00,0.0,WeatherDisplay:10.37,2013-04-16 08:50:00,
2013-04-16 04:00:00,66.6,61.9,29.91,SSE,151,2.0,10.0,85,0.00,CLR,,0.00,0.0,WeatherDisplay:10.37,2013-04-16 09:00:00,
2013-04-16 04:10:00,66.5,61.8,29.91,SSE,147,3.0,7.0,85,0.00,CLR,,0.00,0.0,WeatherDisplay:10.37,2013-04-16 09:10:00,
2013-04-16 04:20:00,66.6,61.9,29.91,SSE,148,3.0,9.0,85,0.00,CLR,,0.00,0.0,WeatherDisplay:10.37,2013-04-16 09:20:00,
2013-04-16 04:30:00,66.6,62.3,29.92,SSE,160,2.0,8.0,86,0.00,CLR,,0.00,0.0,WeatherDisplay:10.37,2013-04-16 09:30:00,
2013-04-16 04:40:00,66.7,62.4,29.92,SSE,159,2.0,6.0,86,0.00,CLR,,0.00,0.0,WeatherDisplay:10.37,2013-04-16 09:40:00,
2013-04-16 04:50:00,66.8,62.4,29.92,SE,146,3.0,6.0,86,0.00,BKN,,0.00,0.0,WeatherDisplay:10.37,2013-04-16 09:50:00,
2013-04-16 05:00:00,67.1,62.7,29.92,SSE,160,3.0,6.0,86,0.00,BKN,,0.00,0.0,WeatherDisplay:10.37,2013-04-16 10:00:00,
2013-04-16 05:10:00,67.3,63.3,29.93,South,178,2.0,7.0,87,0.00,OVC,,0.00,0.0,WeatherDisplay:10.37,2013-04-16 10:10:00,
2013-04-16 05:20:00,67.4,63.4,29.94,SSE,161,2.0,5.0,87,0.00,OVC,,0.00,0.0,WeatherDisplay:10.37,2013-04-16 10:20:00,
2013-04-16 05:30:00,67.6,63.6,29.94,SSE,165,2.0,5.0,87,0.00,OVC,,0.00,0.0,WeatherDisplay:10.37,2013-04-16 10:30:00,
2013-04-16 05:40:00,67.8,64.1,29.95,South,188,2.0,4.0,88,0.00,OVC,,0.00,0.0,WeatherDisplay:10.37,2013-04-16 10:40:00,
2013-04-16 05:50:00,67.6,63.9,29.95,South,183,1.0,4.0,88,0.00,OVC,,0.00,0.0,WeatherDisplay:10.37,2013-04-16 10:50:00,
2013-04-16 06:00:00,67.8,64.7,29.95,South,182,3.0,5.0,90,0.00,OVC,,0.00,0.0,WeatherDisplay:10.37,2013-04-16 11:00:00,
2013-04-16 06:10:00,68.6,65.2,29.96,SSW,194,5.0,7.0,89,0.00,OVC,,0.00,0.0,WeatherDisplay:10.37,2013-04-16 11:10:00,
2013-04-16 06:20:00,68.9,65.5,29.97,SSW,193,3.0,8.0,89,0.00,OVC,,0.00,0.0,WeatherDisplay:10.37,2013-04-16 11:20:00,
2013-04-16 06:30:00,68.8,65.4,29.98,SSW,200,2.0,8.0,89,0.00,OVC,,0.00,0.0,WeatherDisplay:10.37,2013-04-16 11:30:00,
2013-04-16 06:40:00,68.8,65.4,29.98,SSW,193,3.0,7.0,89,0.00,OVC,,0.00,0.0,WeatherDisplay:10.37,2013-04-16 11:40:00,
2013-04-16 06:50:00,68.7,65.6,29.98,SSW,195,2.0,7.0,90,0.00,OVC,,0.00,0.0,WeatherDisplay:10.37,2013-04-16 11:50:00,
2013-04-16 07:00:00,68.5,65.5,29.99,SSW,197,2.0,5.0,90,0.00,OVC,,0.00,0.0,WeatherDisplay:10.37,2013-04-16 12:00:00,
2013-04-16 07:10:00,68.2,65.5,30.00,SSW,201,1.0,4.0,91,0.00,OVC,,0.00,0.0,WeatherDisplay:10.37,2013-04-16 12:10:00,
2013-04-16 07:20:00,67.9,65.5,30.00,SSE,162,1.0,2.0,92,0.00,OVC,,0.00,0.0,WeatherDisplay:10.37,2013-04-16 12:20:00,
2013-04-16 07:30:00,67.9,65.8,30.00,SSE,147,1.0,1.0,93,0.00,OVC,,0.00,0.0,WeatherDisplay:10.37,2013-04-16 12:30:00,
2013-04-16 07:40:00,68.0,66.2,30.01,SE,129,1.0,1.0,94,0.00,OVC,,0.00,0.0,WeatherDisplay:10.37,2013-04-16 12:40:00,
2013-04-16 07:50:00,68.1,66.0,30.01,SE,136,1.0,3.0,93,0.00,OVC,,0.00,0.0,WeatherDisplay:10.37,2013-04-16 12:50:00,
2013-04-16 08:00:00,68.5,66.4,30.01,SE,143,2.0,3.0,93,0.00,OVC,,0.00,0.0,WeatherDisplay:10.37,2013-04-16 13:00:00,
2013-04-16 08:10:00,68.9,66.5,30.01,SE,125,2.0,4.0,92,0.00,OVC,,0.00,0.0,WeatherDisplay:10.37,2013-04-16 13:10:00,
2013-04-16 08:20:00,69.1,66.6,30.01,SE,124,2.0,4.0,92,0.00,OVC,,0.00,0.0,WeatherDisplay:10.37,2013-04-16 13:20:00,
2013-04-16 08:30:00,69.4,66.7,30.01,SE,124,2.0,6.0,91,0.00,BKN,,0.00,0.0,WeatherDisplay:10.37,2013-04-16 13:30:00,
2013-04-16 08:40:00,69.5,66.8,30.01,SE,124,3.0,6.0,91,0.00,BKN,,0.00,0.0,WeatherDisplay:10.37,2013-04-16 13:40:00,
2013-04-16 08:50:00,69.7,67.0,30.01,ESE,118,2.0,7.0,91,0.00,BKN,,0.00,0.0,WeatherDisplay:10.37,2013-04-16 13:50:00,
2013-04-16 09:00:00,69.9,67.2,30.01,SE,138,2.0,4.0,91,0.00,OVC,,0.00,0.0,WeatherDisplay:10.37,2013-04-16 14:00:00,
2013-04-16 09:10:00,70.6,67.5,30.01,SE,139,2.0,6.0,90,0.00,OVC,,0.00,0.0,WeatherDisplay:10.37,2013-04-16 14:10:00,
2013-04-16 09:20:00,71.9,68.2,30.01,SE,141,3.0,6.0,88,0.00,OVC,,0.00,0.0,WeatherDisplay:10.37,2013-04-16 14:20:00,
2013-04-16 09:30:00,72.4,68.0,30.01,SSE,154,3.0,9.0,86,0.00,OVC,,0.00,0.0,WeatherDisplay:10.37,2013-04-16 14:30:00,
2013-04-16 09:40:00,72.7,68.3,30.01,SSE,156,3.0,8.0,86,0.00,OVC,,0.00,0.0,WeatherDisplay:10.37,2013-04-16 14:40:00,
2013-04-16 09:50:00,73.1,68.7,30.01,SSE,160,3.0,7.0,86,0.00,BKN,,0.00,0.0,WeatherDisplay:10.37,2013-04-16 14:50:00,
2013-04-16 10:00:00,73.8,69.0,30.01,SSW,192,5.0,8.0,85,0.00,BKN,,0.00,0.0,WeatherDisplay:10.37,2013-04-16 15:00:00,
2013-04-16 10:10:00,74.2,69.4,30.01,South,180,3.0,12.0,85,0.00,BKN,,0.00,0.0,WeatherDisplay:10.37,2013-04-16 15:10:00,
2013-04-16 10:20:00,74.4,69.2,30.01,SSE,164,6.0,10.0,84,0.00,BKN,,0.00,0.0,WeatherDisplay:10.37,2013-04-16 15:20:00,
2013-04-16 10:30:00,74.3,69.1,30.01,South,178,3.0,8.0,84,0.00,SCT,,0.00,0.0,WeatherDisplay:10.37,2013-04-16 15:30:00,
2013-04-16 10:40:00,75.1,70.0,30.01,SSE,168,5.0,9.0,84,0.00,SCT,,0.00,0.0,WeatherDisplay:10.37,2013-04-16 15:40:00,
2013-04-16 10:50:00,75.7,70.2,30.01,South,187,5.0,12.0,83,0.00,SCT,,0.00,0.0,WeatherDisplay:10.37,2013-04-16 15:50:00,
2013-04-16 11:00:00,76.5,70.9,30.01,South,170,3.0,10.0,83,0.00,SCT,,0.00,0.0,WeatherDisplay:10.37,2013-04-16 16:00:00,
2013-04-16 11:10:00,77.7,71.0,30.01,South,179,6.0,12.0,80,0.00,BKN,,0.00,0.0,WeatherDisplay:10.37,2013-04-16 16:10:00,
2013-04-16 11:20:00,77.9,70.9,30.01,SSW,193,6.0,12.0,79,0.00,BKN,,0.00,0.0,WeatherDisplay:10.37,2013-04-16 16:20:00,
2013-04-16 11:30:00,78.4,71.0,30.01,South,191,7.0,15.0,78,0.00,OVC,,0.00,0.0,WeatherDisplay:10.37,2013-04-16 16:30:00,
2013-04-16 11:40:00,78.4,71.3,30.01,South,189,6.0,13.0,79,0.00,OVC,,0.00,0.0,WeatherDisplay:10.37,2013-04-16 16:40:00,
2013-04-16 11:50:00,78.2,70.4,30.01,South,191,6.0,12.0,77,0.00,OVC,,0.00,0.0,WeatherDisplay:10.37,2013-04-16 16:50:00,
2013-04-16 12:00:00,77.7,70.7,30.01,SW,214,5.0,12.0,79,0.00,OVC,,0.00,0.0,WeatherDisplay:10.37,2013-04-16 17:00:00,
2013-04-16 12:10:00,78.9,70.7,30.00,South,188,7.0,12.0,76,0.00,OVC,,0.00,0.0,WeatherDisplay:10.37,2013-04-16 17:10:00,
2013-04-16 12:20:00,78.8,71.0,29.99,South,191,5.0,12.0,77,0.00,OVC,,0.00,0.0,WeatherDisplay:10.37,2013-04-16 17:20:00,
2013-04-16 12:30:00,79.1,70.9,29.99,South,189,6.0,10.0,76,0.00,OVC,,0.00,0.0,WeatherDisplay:10.37,2013-04-16 17:30:00,
2013-04-16 12:40:00,79.8,70.8,29.98,SSW,200,6.0,12.0,74,0.00,BKN,,0.00,0.0,WeatherDisplay:10.37,2013-04-16 17:40:00,
2013-04-16 12:50:00,79.6,70.6,29.98,SSW,202,6.0,12.0,74,0.00,BKN,,0.00,0.0,WeatherDisplay:10.37,2013-04-16 17:50:00,
2013-04-16 13:00:00,80.4,71.4,29.98,South,189,7.0,12.0,74,0.00,BKN,,0.00,0.0,WeatherDisplay:10.37,2013-04-16 18:00:00,
2013-04-16 13:10:00,80.0,71.0,29.98,South,182,3.0,12.0,74,0.00,BKN,,0.00,0.0,WeatherDisplay:10.37,2013-04-16 18:10:00,
2013-04-16 13:20:00,81.2,71.3,29.97,South,183,7.0,12.0,72,0.00,BKN,,0.00,0.0,WeatherDisplay:10.37,2013-04-16 18:20:00,
2013-04-16 13:30:00,81.2,70.9,29.97,SSW,192,6.0,10.0,71,0.00,BKN,,0.00,0.0,WeatherDisplay:10.37,2013-04-16 18:30:00,
2013-04-16 13:40:00,81.8,71.8,29.97,South,173,6.0,10.0,72,0.00,BKN,,0.00,0.0,WeatherDisplay:10.37,2013-04-16 18:40:00,
2013-04-16 13:50:00,82.7,72.3,29.97,South,179,6.0,12.0,71,0.00,BKN,,0.00,0.0,WeatherDisplay:10.37,2013-04-16 18:50:00,
2013-04-16 14:00:00,82.5,71.7,29.96,SSE,148,6.0,12.0,70,0.00,BKN,,0.00,0.0,WeatherDisplay:10.37,2013-04-16 19:00:00,
2013-04-16 14:10:00,82.3,71.6,29.96,SE,146,5.0,10.0,70,0.00,BKN,,0.00,0.0,WeatherDisplay:10.37,2013-04-16 19:10:00,
2013-04-16 14:20:00,82.5,71.3,29.96,South,171,6.0,9.0,69,0.00,BKN,,0.00,0.0,WeatherDisplay:10.37,2013-04-16 19:20:00,
2013-04-16 14:30:00,84.1,71.1,29.95,SSE,165,6.0,12.0,65,0.00,BKN,,0.00,0.0,WeatherDisplay:10.37,2013-04-16 19:30:00,
2013-04-16 14:40:00,84.0,71.4,29.95,SSE,153,6.0,12.0,66,0.00,BKN,,0.00,0.0,WeatherDisplay:10.37,2013-04-16 19:40:00,
2013-04-16 14:50:00,81.5,71.2,29.96,South,175,6.0,9.0,71,0.00,BKN,,0.00,0.0,WeatherDisplay:10.37,2013-04-16 19:50:00,
2013-04-16 15:00:00,77.2,68.3,29.96,SSW,207,10.0,16.0,74,0.01,RA,,0.01,0.0,WeatherDisplay:10.37,2013-04-16 20:00:00,
2013-04-16 15:10:00,73.6,67.4,29.96,SSE,153,6.0,16.0,81,0.02,RA,,0.03,0.0,WeatherDisplay:10.37,2013-04-16 20:10:00,
2013-04-16 15:20:00,74.4,68.2,29.96,SSE,160,5.0,12.0,81,0.00,BKN,,0.03,0.0,WeatherDisplay:10.37,2013-04-16 20:20:00,
2013-04-16 15:30:00,75.9,68.9,29.96,SSE,157,3.0,8.0,79,0.00,BKN,,0.03,0.0,WeatherDisplay:10.37,2013-04-16 20:30:00,
2013-04-16 15:40:00,77.7,68.7,29.95,SSW,194,3.0,6.0,74,0.00,BKN,,0.03,0.0,WeatherDisplay:10.37,2013-04-16 20:40:00,
2013-04-16 15:50:00,78.9,70.6,29.95,SE,131,1.0,4.0,76,0.00,BKN,,0.03,0.0,WeatherDisplay:10.37,2013-04-16 20:50:00,
2013-04-16 16:00:00,78.0,71.0,29.95,ESE,109,2.0,7.0,79,0.00,BKN,,0.03,0.0,WeatherDisplay:10.37,2013-04-16 21:00:00,
2013-04-16 16:10:00,78.1,71.5,29.95,East,91,1.0,4.0,80,0.00,BKN,,0.03,0.0,WeatherDisplay:10.37,2013-04-16 21:10:00,
2013-04-16 16:20:00,78.7,71.6,29.96,East,85,2.0,4.0,79,0.00,OVC,,0.03,0.0,WeatherDisplay:10.37,2013-04-16 21:20:00,
2013-04-16 16:30:00,77.6,72.0,29.95,ENE,63,2.0,5.0,83,0.01,RA,,0.04,0.0,WeatherDisplay:10.37,2013-04-16 21:30:00,
2013-04-16 16:40:00,76.5,71.7,29.95,NE,36,7.0,17.0,85,0.14,RA,,0.18,0.0,WeatherDisplay:10.37,2013-04-16 21:40:00,
2013-04-16 16:50:00,75.6,70.4,29.95,NE,55,1.0,8.0,84,0.00,BKN,,0.18,0.0,WeatherDisplay:10.37,2013-04-16 21:50:00,
2013-04-16 17:00:00,75.2,71.4,29.95,ESE,102,1.0,3.0,88,0.00,BKN,,0.18,0.0,WeatherDisplay:10.37,2013-04-16 22:00:00,
2013-04-16 17:10:00,75.4,71.6,29.95,ENE,77,1.0,2.0,88,0.00,FEW,,0.18,0.0,WeatherDisplay:10.37,2013-04-16 22:10:00,
2013-04-16 17:20:00,75.6,72.1,29.95,ENE,62,0.0,3.0,89,0.00,FEW,,0.18,0.0,WeatherDisplay:10.37,2013-04-16 22:20:00,
2013-04-16 17:30:00,76.0,72.2,29.95,NNE,24,2.0,3.0,88,0.02,RA,,0.20,0.0,WeatherDisplay:10.37,2013-04-16 22:30:00,
2013-04-16 17:40:00,76.1,72.6,29.95,NE,44,0.0,4.0,89,0.01,RA,,0.21,0.0,WeatherDisplay:10.37,2013-04-16 22:40:00,
2013-04-16 17:50:00,76.1,72.6,29.96,WSW,244,0.0,2.0,89,0.00,SCT,,0.21,0.0,WeatherDisplay:10.37,2013-04-16 22:50:00,
2013-04-16 18:00:00,76.1,73.0,29.96,ENE,59,3.0,5.0,90,0.00,SCT,,0.21,0.0,WeatherDisplay:10.37,2013-04-16 23:00:00,
2013-04-16 18:10:00,76.2,72.4,29.95,NE,55,5.0,8.0,88,0.00,FEW,,0.21,0.0,WeatherDisplay:10.37,2013-04-16 23:10:00,
2013-04-16 18:20:00,76.8,73.0,29.96,NNE,16,1.0,7.0,88,0.00,FEW,,0.21,0.0,WeatherDisplay:10.37,2013-04-16 23:20:00,
2013-04-16 18:30:00,77.2,73.0,29.96,North,356,1.0,3.0,87,0.00,CLR,,0.21,0.0,WeatherDisplay:10.37,2013-04-16 23:30:00,
2013-04-16 18:40:00,77.0,73.2,29.97,ENE,60,0.0,1.0,88,0.00,CLR,,0.21,0.0,WeatherDisplay:10.37,2013-04-16 23:40:00,
2013-04-16 18:50:00,76.6,73.4,29.97,ENE,60,0.0,1.0,90,0.00,CLR,,0.21,0.0,WeatherDisplay:10.37,2013-04-16 23:50:00,
2013-04-16 19:00:00,76.3,73.1,29.97,ENE,60,1.0,1.0,90,0.00,CLR,,0.21,0.0,WeatherDisplay:10.37,2013-04-17 00:00:00,
2013-04-16 19:10:00,75.9,72.8,29.97,ENE,71,0.0,1.0,90,0.00,CLR,,0.21,0.0,WeatherDisplay:10.37,2013-04-17 00:10:00,
2013-04-16 19:20:00,75.8,72.3,29.97,ESE,117,1.0,3.0,89,0.00,CLR,,0.21,0.0,WeatherDisplay:10.37,2013-04-17 00:20:00,
2013-04-16 19:30:00,75.2,72.1,29.96,SE,131,1.0,2.0,90,0.00,SCT,,0.21,0.0,WeatherDisplay:10.37,2013-04-17 00:30:00,
2013-04-16 19:40:00,75.1,71.3,29.97,SSE,155,2.0,6.0,88,0.00,SCT,,0.21,0.0,WeatherDisplay:10.37,2013-04-17 00:40:00,
2013-04-16 19:50:00,75.2,70.7,29.97,SSE,163,2.0,5.0,86,0.00,SCT,,0.21,0.0,WeatherDisplay:10.37,2013-04-17 00:50:00,
2013-04-16 20:00:00,75.0,69.8,29.97,SSE,158,2.0,6.0,84,0.00,SCT,,0.21,0.0,WeatherDisplay:10.37,2013-04-17 01:00:00,
2013-04-16 20:10:00,74.8,69.7,29.97,SSE,147,2.0,5.0,84,0.00,SCT,,0.21,0.0,WeatherDisplay:10.37,2013-04-17 01:10:00,
2013-04-16 20:20:00,75.0,69.8,29.98,SSE,155,2.0,5.0,84,0.00,BKN,,0.21,0.0,WeatherDisplay:10.37,2013-04-17 01:20:00,
2013-04-16 20:30:00,74.6,69.4,29.98,SSE,148,1.0,5.0,84,0.00,BKN,,0.21,0.0,WeatherDisplay:10.37,2013-04-17 01:30:00,
2013-04-16 20:40:00,74.6,69.1,29.99,SE,143,1.0,5.0,83,0.00,BKN,,0.21,0.0,WeatherDisplay:10.37,2013-04-17 01:40:00,
2013-04-16 20:50:00,74.4,68.9,29.99,SE,143,1.0,3.0,83,0.00,FEW,,0.21,0.0,WeatherDisplay:10.37,2013-04-17 01:50:00,
2013-04-16 21:00:00,74.2,69.1,29.99,SE,146,1.0,3.0,84,0.00,FEW,,0.21,0.0,WeatherDisplay:10.37,2013-04-17 02:00:00,
2013-04-16 21:10:00,74.4,69.2,30.00,SE,143,1.0,3.0,84,0.00,CLR,,0.21,0.0,WeatherDisplay:10.37,2013-04-17 02:10:00,
2013-04-16 21:20:00,74.3,69.1,30.00,SE,135,0.0,2.0,84,0.00,CLR,,0.21,0.0,WeatherDisplay:10.37,2013-04-17 02:20:00,
2013-04-16 21:30:00,74.1,68.9,30.00,SE,128,1.0,1.0,84,0.00,CLR,,0.21,0.0,WeatherDisplay:10.37,2013-04-17 02:30:00,
2013-04-16 21:40:00,74.1,69.0,30.00,SE,144,2.0,3.0,84,0.00,CLR,,0.21,0.0,WeatherDisplay:10.37,2013-04-17 02:40:00,
2013-04-16 21:50:00,74.0,68.9,30.01,SSE,147,2.0,3.0,84,0.00,CLR,,0.21,0.0,WeatherDisplay:10.37,2013-04-17 02:50:00,
2013-04-16 22:00:00,73.8,68.7,30.01,SE,146,2.0,4.0,84,0.00,CLR,,0.21,0.0,WeatherDisplay:10.37,2013-04-17 03:00:00,
2013-04-16 22:10:00,73.8,68.7,30.01,SSE,148,2.0,5.0,84,0.00,CLR,,0.21,0.0,WeatherDisplay:10.37,2013-04-17 03:10:00,
2013-04-16 22:20:00,73.8,68.7,30.01,SSE,151,2.0,4.0,84,0.00,CLR,,0.21,0.0,WeatherDisplay:10.37,2013-04-17 03:20:00,
2013-04-16 22:30:00,73.8,68.7,30.00,SE,142,2.0,4.0,84,0.00,CLR,,0.21,0.0,WeatherDisplay:10.37,2013-04-17 03:30:00,
2013-04-16 22:40:00,73.7,68.6,30.00,SE,140,2.0,5.0,84,0.00,CLR,,0.21,0.0,WeatherDisplay:10.37,2013-04-17 03:40:00,
2013-04-16 22:50:00,73.3,68.5,30.00,SE,139,1.0,4.0,85,0.00,CLR,,0.21,0.0,WeatherDisplay:10.37,2013-04-17 03:50:00,
2013-04-16 23:00:00,73.0,68.2,30.00,SE,145,2.0,4.0,85,0.00,CLR,,0.21,0.0,WeatherDisplay:10.37,2013-04-17 04:00:00,
2013-04-16 23:10:00,72.9,68.5,30.00,SE,145,2.0,4.0,86,0.00,CLR,,0.21,0.0,WeatherDisplay:10.37,2013-04-17 04:10:00,
2013-04-16 23:20:00,72.8,68.4,30.01,SSE,147,2.0,4.0,86,0.00,CLR,,0.21,0.0,WeatherDisplay:10.37,2013-04-17 04:20:00,
2013-04-16 23:30:00,72.6,68.2,30.01,SSE,148,2.0,3.0,86,0.00,CLR,,0.21,0.0,WeatherDisplay:10.37,2013-04-17 04:30:00,
2013-04-16 23:40:00,72.5,68.4,30.01,SE,141,1.0,3.0,87,0.00,CLR,,0.21,0.0,WeatherDisplay:10.37,2013-04-17 04:40:00,
2013-04-16 23:50:00,72.5,68.4,30.01,SE,138,1.0,3.0,87,0.00,SCT,,0.21,0.0,WeatherDisplay:10.37,2013-04-17 04:50:00,